(367739) = 2004 EB49 = 2008 EZ106 = 2010 US97

Discovered at Apache Point on 2002-09-05 by Sloan Digital Sky Survey.

Orbit

Orbit type: Main Belt

Note: WebGL enabled browser required.

epoch2023-02-25.0
epoch JD2460000.5
perihelion date2022-08-15.65584
perihelion JD2459807.15584
argument of perihelion (°)336.01019
ascending node (°)85.60513
inclination (°)6.54337
eccentricity0.1134721
perihelion distance (AU)2.1949276
Tisserand w.r.t. Jupiter3.5
ΔV w.r.t. Earth (km/sec)9.5
semimajor axis (AU)2.4758697
mean anomaly (°)48.91513
mean daily motion (°/day)0.25299510
aphelion distance (AU)2.757
period (years)3.9
P-vector [x]0.47274837
P-vector [y]0.82579413
P-vector [z]0.30752730
Q-vector [x]-0.87384177
Q-vector [y]0.39432931
Q-vector [z]0.28443797
absolute magnitude17.62
phase slope0.15
uncertainty0
referenceMPO 730869
observations used186
oppositions14
arc length (days)7436
first opposition used2002
last opposition used2023
residual rms (arc-secs)0.82
perturbers coarse indicatorM-v
perturbers precise indicator003Ek
first observation date used2002-09-05.0
last observation date used2023-01-14.0
computer nameMPCLINUX
Minimum Orbit Intersection Distances (in AU)
for orbit epoch: 2460000.5, reference: E2023-A67
Mercury1.88502
Venus1.47381
Earth1.20862
Mars0.64918
Jupiter2.5203
Saturn6.81855
Uranus15.8804
Neptune27.5701

Observations

188 total observations over interval: 2002 09 05.392950 – 2023 01 14.361197
These data are available for download (format description).

Date (UT) J2000 RA J2000 Dec Magn Location Ref
2002 09 05.392950 01 54 12.473 +00 59 43.57 21.31 V 645 – Apache Point-Sloan Digital Sky Survey MPS 368623
2002 09 05.396422 01 54 12.450 +00 59 42.88 22.03   645 – Apache Point-Sloan Digital Sky Survey MPS 368623
2002 10 04.354500 01 40 17.068 -01 10 31.13 20.61 V 645 – Apache Point-Sloan Digital Sky Survey MPS 368623
2002 10 04.357972 01 40 16.886 -01 10 32.19 21.43   645 – Apache Point-Sloan Digital Sky Survey MPS 368623
2004 03 15.36597 11 43 02.27 +13 29 50.1 21.6 V 691 – Steward Observatory, Kitt Peak-Spacewatch MPS 102316
2004 03 15.39397 11 43 00.66 +13 29 59.7 21.5 V 691 – Steward Observatory, Kitt Peak-Spacewatch MPS 102316
2004 03 15.42287 11 42 59.01 +13 30 09.4 21.7 V 691 – Steward Observatory, Kitt Peak-Spacewatch MPS 102316
2004 03 17.30980 11 41 14.17 +13 40 29.2 21.9 V 691 – Steward Observatory, Kitt Peak-Spacewatch MPS 102316
2004 03 17.34055 11 41 12.43 +13 40 39.1 21.6 V 691 – Steward Observatory, Kitt Peak-Spacewatch MPS 102316
2004 03 17.36986 11 41 10.73 +13 40 48.4 21.8 V 691 – Steward Observatory, Kitt Peak-Spacewatch MPS 102316
2006 11 22.17729 02 13 10.48 +05 27 18.7 20.4   G96 – Mt. Lemmon Survey MPS 368623
2006 11 22.18571 02 13 10.12 +05 27 19.3 20.5   G96 – Mt. Lemmon Survey MPS 368623
2006 11 22.19389 02 13 09.76 +05 27 19.7 20.5   G96 – Mt. Lemmon Survey MPS 368623
2006 11 22.20205 02 13 09.37 +05 27 20.7 20.2   G96 – Mt. Lemmon Survey MPS 368623
2008 03 06.40226 12 44 14.10 +06 28 01.3 21.2 V G96 – Mt. Lemmon Survey MPS 244166
2008 03 06.40877 12 44 13.81 +06 28 03.6 21.2 V G96 – Mt. Lemmon Survey MPS 244166
2008 03 06.41531 12 44 13.48 +06 28 06.2 21.3 V G96 – Mt. Lemmon Survey MPS 244166
2008 03 06.42188 12 44 13.23 +06 28 08.7 21.1 V G96 – Mt. Lemmon Survey MPS 244166
2008 03 12.35737 12 39 38.70 +07 06 06.5 21.6 V G96 – Mt. Lemmon Survey MPS 244166
2008 03 12.36830 12 39 38.16 +07 06 10.7 21.1 V G96 – Mt. Lemmon Survey MPS 244166
2008 03 12.37903 12 39 37.58 +07 06 15.3 21.3 V G96 – Mt. Lemmon Survey MPS 244166
2008 03 12.38979 12 39 37.08 +07 06 19.2 20.8 V G96 – Mt. Lemmon Survey MPS 244166
2008 04 14.28189 12 11 00.63 +09 39 27.1 20.9 V G96 – Mt. Lemmon Survey MPS 368623
2008 04 14.28858 12 11 00.31 +09 39 28.0 21.0 V G96 – Mt. Lemmon Survey MPS 368623
2008 04 14.29523 12 11 00.02 +09 39 28.8 21.4 V G96 – Mt. Lemmon Survey MPS 368623
2008 04 14.30189 12 10 59.73 +09 39 29.4 20.9 V G96 – Mt. Lemmon Survey MPS 368623
2010 10 28.46857 03 58 27.19 +13 31 09.5 20.0 V G96 – Mt. Lemmon Survey MPS 355650
2010 10 28.47383 03 58 26.97 +13 31 08.9 20.1 V G96 – Mt. Lemmon Survey MPS 355650
2010 10 28.47898 03 58 26.72 +13 31 08.9 20.1 V G96 – Mt. Lemmon Survey MPS 355650
2010 10 28.48418 03 58 26.50 +13 31 08.5 19.9 V G96 – Mt. Lemmon Survey MPS 355650
2010 11 05.33586 03 52 06.67 +13 26 08.8 19.8 V G96 – Mt. Lemmon Survey MPS 355650
2010 11 05.34416 03 52 06.24 +13 26 08.5 20.5 V G96 – Mt. Lemmon Survey MPS 355650
2010 11 05.35249 03 52 05.77 +13 26 08.0 19.7 V G96 – Mt. Lemmon Survey MPS 355650
2010 11 05.36085 03 52 05.26 +13 26 08.0 19.8 V G96 – Mt. Lemmon Survey MPS 355650
2010 11 12.38375 03 45 20.88 +13 22 48.7 20.0 V G96 – Mt. Lemmon Survey MPS 355650
2010 11 12.39125 03 45 20.37 +13 22 48.6 19.9 V G96 – Mt. Lemmon Survey MPS 355650
2010 11 12.39872 03 45 19.90 +13 22 48.7 19.9 V G96 – Mt. Lemmon Survey MPS 355650
2010 11 12.40626 03 45 19.40 +13 22 48.7 19.5 V G96 – Mt. Lemmon Survey MPS 355650
2010 12 05.32868 03 22 36.44 +13 32 55.4 19.7 V G96 – Mt. Lemmon Survey MPS 359237
2010 12 05.33626 03 22 36.08 +13 32 55.4 19.6 V G96 – Mt. Lemmon Survey MPS 359237
2010 12 05.34393 03 22 35.65 +13 32 56.4 20.1 V G96 – Mt. Lemmon Survey MPS 359237
2010 12 05.35161 03 22 35.22 +13 32 57.1 20.1 V G96 – Mt. Lemmon Survey MPS 359237
2011 01 28.14465 03 22 01.41 +17 21 55.8 21.7 V G96 – Mt. Lemmon Survey MPS 367215
2011 01 28.15166 03 22 01.74 +17 21 58.9 21.7 V G96 – Mt. Lemmon Survey MPS 367215
2011 01 28.15861 03 22 02.06 +17 22 01.2 21.6 V G96 – Mt. Lemmon Survey MPS 367215
2011 01 28.16558 03 22 02.46 +17 22 03.9 21.7 V G96 – Mt. Lemmon Survey MPS 367215
2012 04 12.34782 13 00 26.325 +04 09 05.33 21.3 w F51 – Pan-STARRS 1, Haleakala MPS 420893
2012 04 12.36173 13 00 25.552 +04 09 08.52 21.1 w F51 – Pan-STARRS 1, Haleakala MPS 420893
2012 04 12.38971 13 00 23.986 +04 09 15.02 21.3 w F51 – Pan-STARRS 1, Haleakala MPS 420893
2013 07 04.43539 19 43 29.519 -25 34 35.68 21.2 w F51 – Pan-STARRS 1, Haleakala MPS 471365
2013 07 04.44797 19 43 28.769 -25 34 39.49 21.1 w F51 – Pan-STARRS 1, Haleakala MPS 471365
2013 07 04.46054 19 43 28.025 -25 34 43.11 21.0 w F51 – Pan-STARRS 1, Haleakala MPS 471365
2014 12 13.29275 04 39 58.064 +20 03 30.84 20.1 w F51 – Pan-STARRS 1, Haleakala MPS 552998
2014 12 13.30536 04 39 57.250 +20 03 32.58 20.1 w F51 – Pan-STARRS 1, Haleakala MPS 552998
2014 12 13.31802 04 39 56.423 +20 03 34.22 20.1 w F51 – Pan-STARRS 1, Haleakala MPS 552998
2015 01 17.12297 04 19 22.56 +21 34 07.4 20.8 V G96 – Mt. Lemmon Survey MPS 567191
2015 01 17.12755 04 19 22.53 +21 34 08.4 21.1 V G96 – Mt. Lemmon Survey MPS 567191
2015 01 17.13213 04 19 22.47 +21 34 09.1 20.6 V G96 – Mt. Lemmon Survey MPS 567191
2015 01 17.13670 04 19 22.50 +21 34 10.5 20.7 V G96 – Mt. Lemmon Survey MPS 567191
2015 01 22.34107 04 19 48.182 +21 51 41.89 21.0 w F51 – Pan-STARRS 1, Haleakala MPS 569462
2015 01 22.35504 04 19 48.298 +21 51 44.72 21.2 w F51 – Pan-STARRS 1, Haleakala MPS 569462
2015 01 22.36899 04 19 48.422 +21 51 47.58 21.1 w F51 – Pan-STARRS 1, Haleakala MPS 569462
2015 01 22.38289 04 19 48.526 +21 51 50.37 21.2 w F51 – Pan-STARRS 1, Haleakala MPS 569462
2015 01 24.32363 04 20 13.139 +21 58 38.33 21.1 w F51 – Pan-STARRS 1, Haleakala MPS 569462
2015 01 24.33814 04 20 13.357 +21 58 41.49 21.1 w F51 – Pan-STARRS 1, Haleakala MPS 569462
2015 01 24.35260 04 20 13.537 +21 58 44.57 21.2 w F51 – Pan-STARRS 1, Haleakala MPS 569462
2015 01 24.36714 04 20 13.725 +21 58 47.34 21.2 w F51 – Pan-STARRS 1, Haleakala MPS 569462
2015 02 07.12504 04 26 42.18 +22 50 10.6 20.8 V G96 – Mt. Lemmon Survey MPS 579851
2015 02 07.13236 04 26 42.48 +22 50 12.0 21.2 V G96 – Mt. Lemmon Survey MPS 579851
2015 02 07.13967 04 26 42.74 +22 50 14.6 21.8 V G96 – Mt. Lemmon Survey MPS 579851
2015 02 07.14698 04 26 43.04 +22 50 15.5 21.4 V G96 – Mt. Lemmon Survey MPS 579851
2016 03 06.59098 14 11 45.310 -04 01 59.05 22.0 w F51 – Pan-STARRS 1, Haleakala MPS 692383
2016 03 06.60364 14 11 45.119 -04 01 56.84 22.0 w F51 – Pan-STARRS 1, Haleakala MPS 692383
2016 03 06.61628 14 11 44.907 -04 01 54.55 21.9 w F51 – Pan-STARRS 1, Haleakala MPS 692383
2016 03 06.62905 14 11 44.718 -04 01 51.68 21.9 w F51 – Pan-STARRS 1, Haleakala MPS 692383
2016 03 31.46433 13 58 16.386 -02 15 42.64 21.7 r F51 – Pan-STARRS 1, Haleakala MPS 698496
2016 03 31.47662 13 58 15.736 -02 15 38.88 21.4 r F51 – Pan-STARRS 1, Haleakala MPS 698496
2016 03 31.48895 13 58 15.118 -02 15 35.26 21.3 r F51 – Pan-STARRS 1, Haleakala MPS 698496
2016 04 01.41891 13 57 29.944 -02 11 07.16 21.4 w F51 – Pan-STARRS 1, Haleakala MPS 698496
2016 04 01.44576 13 57 28.598 -02 10 59.60 21.4 w F51 – Pan-STARRS 1, Haleakala MPS 698496
2016 04 01.45925 13 57 27.892 -02 10 55.68 21.5 w F51 – Pan-STARRS 1, Haleakala MPS 698496
2016 04 02.42289 13 56 40.146 -02 06 18.49 21.3 w F51 – Pan-STARRS 1, Haleakala MPS 700969
2016 04 02.43481 13 56 39.531 -02 06 15.09 21.3 w F51 – Pan-STARRS 1, Haleakala MPS 700969
2016 04 02.44676 13 56 38.912 -02 06 11.51 21.4 w F51 – Pan-STARRS 1, Haleakala MPS 700969
2016 04 09.39232 13 50 34.099 -01 33 32.86 21.1 w F51 – Pan-STARRS 1, Haleakala MPS 703564
2016 04 09.40430 13 50 33.433 -01 33 29.84 21.2 w F51 – Pan-STARRS 1, Haleakala MPS 703564
2016 04 09.41622 13 50 32.736 -01 33 26.41 21.3 w F51 – Pan-STARRS 1, Haleakala MPS 703564
2016 04 09.42816 13 50 32.074 -01 33 23.13 21.1 w F51 – Pan-STARRS 1, Haleakala MPS 703564
2016 04 14.34320 13 46 00.15 -01 11 46.6 21.9 V G96 – Mt. Lemmon Survey MPS 703564
2016 04 14.34946 13 45 59.78 -01 11 45.1 21.7 V G96 – Mt. Lemmon Survey MPS 703564
2016 04 14.35575 13 45 59.43 -01 11 43.0 21.3 V G96 – Mt. Lemmon Survey MPS 703564
2016 04 14.36201 13 45 59.04 -01 11 41.6 21.0 V G96 – Mt. Lemmon Survey MPS 703564
2017 06 24.50999 20 47 34.206 -22 59 14.93 21.4 w F51 – Pan-STARRS 1, Haleakala MPS 803405
2017 06 24.53202 20 47 33.578 -22 59 22.13 21.4 w F51 – Pan-STARRS 1, Haleakala MPS 803405
2017 06 24.54306 20 47 33.267 -22 59 25.44 21.7 w F51 – Pan-STARRS 1, Haleakala MPS 803405
